This is the latest recevied weather packets stored in our database for station/object KC5DAQ-29. If no packets are shown the sender has not sent any weather packets the latest 10 day(s).
| Time | Temp. | Humidity | Pressure | Rain* | Wind** | Luminosity | Snow |
|---|---|---|---|---|---|---|---|
| 1777652223 | 16.67° C | 100% | 1009.2 hPa | 1.02 mm | - | 19 W/m² | - |
| 1777652163 | 16.67° C | 100% | 1009.1 hPa | 1.02 mm | - | 19 W/m² | - |
| 1777652102 | 16.67° C | 100% | 1009.1 hPa | 1.02 mm | - | 19 W/m² | - |
| 1777652044 | 16.67° C | 100% | 1009 hPa | 0.76 mm | - | 19 W/m² | - |
| 1777651983 | 16.67° C | 100% | 1008.8 hPa | 0.25 mm | - | 18 W/m² | - |
| 1777651924 | 16.67° C | 100% | 1008.9 hPa | 0.25 mm | - | 18 W/m² | - |
| 1777651863 | 16.67° C | 100% | 1008.9 hPa | 0.25 mm | - | 18 W/m² | - |
| 1777651803 | 16.67° C | 100% | 1009 hPa | 0.25 mm | - | 18 W/m² | - |
| 1777651743 | 16.67° C | 100% | 1009.3 hPa | 0.25 mm | - | 18 W/m² | - |
| 1777651683 | 16.67° C | 100% | 1009.4 hPa | 0.25 mm | - | 18 W/m² | - |
| 1777651624 | 16.67° C | 100% | 1009.5 hPa | 0.25 mm | - | 23 W/m² | - |
| 1777651562 | 16.67° C | 100% | 1009.5 hPa | 0.25 mm | - | 23 W/m² | - |
| 1777651502 | 16.67° C | 100% | 1009.5 hPa | 0.25 mm | - | 23 W/m² | - |
| 1777651443 | 16.67° C | 100% | 1009.5 hPa | 0.25 mm | - | 23 W/m² | - |
| 1777651383 | 16.67° C | 100% | 1009.4 hPa | 0.25 mm | - | 23 W/m² | - |
| 1777651324 | 16.67° C | 100% | 1009.3 hPa | 0.25 mm | - | 26 W/m² | - |
| 1777651264 | 16.67° C | 100% | 1009.1 hPa | 0.25 mm | - | 30 W/m² | - |
| 1777651204 | 16.67° C | 100% | 1009.1 hPa | 0.25 mm | - | 28 W/m² | - |
| 1777651136 | 16.67° C | 100% | 1009 hPa | 0.25 mm | - | 28 W/m² | - |
| 1777651069 | 16.67° C | 100% | 1009.2 hPa | 0.25 mm | - | 28 W/m² | - |
| 1777651005 | 16.67° C | 100% | 1009.3 hPa | 0.25 mm | - | 28 W/m² | - |
| 1777650931 | 16.67° C | 100% | 1009.4 hPa | 0.25 mm | - | 28 W/m² | - |
| 1777650872 | 16.67° C | 100% | 1009.5 hPa | 0.25 mm | - | 28 W/m² | - |
| 1777650814 | 16.67° C | 100% | 1009.5 hPa | 0.25 mm | - | 28 W/m² | - |
| 1777650747 | 16.67° C | 100% | 1009.4 hPa | 0.25 mm | - | 28 W/m² | - |
* Rain latest hour (hover to see other rain measurements)
** Current wind speed in m/s (hover to see current wind gust speed)